TimeEST,TemperatureF,Dew PointF,Humidity,Sea Level PressureIn,VisibilityMPH,Wind Direction,Wind SpeedMPH,Gust SpeedMPH,PrecipitationIn,Events,Conditions,WindDirDegrees,DateUTC
12:53 AM,66.0,64.0,93,30.11,10.0,NE,4.6,-,N/A,,Clear,40,2012-11-14 05:53:00
1:53 AM,66.0,63.0,90,30.09,10.0,NE,4.6,-,N/A,,Clear,50,2012-11-14 06:53:00
2:53 AM,64.9,63.0,93,30.10,10.0,NNE,3.5,-,N/A,,Clear,20,2012-11-14 07:53:00
3:53 AM,64.0,62.1,93,30.10,10.0,NE,4.6,-,N/A,,Clear,40,2012-11-14 08:53:00
4:53 AM,63.0,62.1,97,30.09,10.0,NE,4.6,-,N/A,,Clear,40,2012-11-14 09:53:00
5:53 AM,63.0,62.1,97,30.11,10.0,NE,5.8,-,N/A,,Clear,40,2012-11-14 10:53:00
6:53 AM,64.0,62.1,93,30.12,10.0,NNE,6.9,-,N/A,,Clear,30,2012-11-14 11:53:00
7:53 AM,64.9,63.0,93,30.13,10.0,ENE,4.6,-,N/A,,Clear,60,2012-11-14 12:53:00
8:53 AM,66.9,64.0,90,30.16,10.0,NNE,6.9,-,N/A,,Clear,30,2012-11-14 13:53:00
9:39 AM,68.0,64.4,88,30.16,10.0,NE,10.4,-,N/A,,Partly Cloudy,40,2012-11-14 14:39:00
9:53 AM,69.1,64.9,87,30.17,10.0,NE,9.2,-,N/A,,Mostly Cloudy,50,2012-11-14 14:53:00
10:00 AM,69.8,64.4,83,30.17,10.0,NE,9.2,-,N/A,,Scattered Clouds,50,2012-11-14 15:00:00
10:11 AM,69.8,64.4,83,30.17,10.0,NE,9.2,-,N/A,,Mostly Cloudy,40,2012-11-14 15:11:00
10:53 AM,73.0,64.9,76,30.17,10.0,NNE,8.1,-,N/A,,Mostly Cloudy,30,2012-11-14 15:53:00
11:07 AM,73.4,64.4,73,30.16,10.0,ENE,9.2,-,N/A,,Scattered Clouds,60,2012-11-14 16:07:00
11:48 AM,73.4,64.4,73,30.15,10.0,NNE,9.2,-,N/A,,Mostly Cloudy,30,2012-11-14 16:48:00
11:53 AM,73.9,66.0,76,30.14,10.0,NE,9.2,-,N/A,,Mostly Cloudy,50,2012-11-14 16:53:00
12:00 PM,73.4,66.2,78,30.14,10.0,NNE,9.2,-,N/A,,Mostly Cloudy,30,2012-11-14 17:00:00
12:53 PM,77.0,66.0,69,30.12,10.0,NE,6.9,-,N/A,,Scattered Clouds,40,2012-11-14 17:53:00
1:53 PM,77.0,64.9,66,30.10,10.0,NE,6.9,-,N/A,,Scattered Clouds,40,2012-11-14 18:53:00
2:53 PM,78.1,63.0,60,30.09,10.0,North,8.1,-,N/A,,Clear,10,2012-11-14 19:53:00
3:53 PM,78.1,63.0,60,30.08,10.0,NE,3.5,-,N/A,,Partly Cloudy,50,2012-11-14 20:53:00
4:53 PM,75.9,63.0,64,30.07,10.0,ENE,9.2,-,N/A,,Clear,70,2012-11-14 21:53:00
5:53 PM,73.0,63.0,71,30.09,10.0,North,5.8,-,N/A,,Clear,360,2012-11-14 22:53:00
6:53 PM,71.1,63.0,75,30.10,10.0,North,5.8,-,N/A,,Clear,360,2012-11-14 23:53:00
7:53 PM,69.1,63.0,81,30.12,10.0,NE,3.5,-,N/A,,Clear,40,2012-11-15 00:53:00
8:53 PM,69.1,63.0,81,30.13,10.0,NNE,5.8,-,N/A,,Scattered Clouds,20,2012-11-15 01:53:00
9:53 PM,68.0,63.0,84,30.13,10.0,ENE,6.9,-,N/A,,Clear,60,2012-11-15 02:53:00
10:53 PM,66.9,63.0,87,30.14,10.0,ENE,5.8,-,N/A,,Clear,60,2012-11-15 03:53:00
11:53 PM,64.9,63.0,93,30.11,10.0,NE,4.6,-,N/A,,Clear,50,2012-11-15 04:53:00